[[{"header":{"parameterUnit":"m.s-1","parameterCategory":1,"la1":30.2991,"la2":30.254,"lo1":-89.0895,"lo2":-89.0444,"dy":0.0017,"dx":0.0017,"nx":28,"ny":28,"refTime":"2025-09-16T09:00:00:Z","depth":0,"parameterNumber":2,"parameterNumberName":"U-component_of_WINDS"},"data":[0,0,0,0,0,0,0,0,0,0,0,0,0,0,0,0,0,0,0,0,0,0,0,0,0,0,0,0,0,0,0,0,0,0,0,0,0,0,0,0,0,0,0,0,0,0,0,0,0,0,0,0,0,0,0,0,0,0,-0.2619,-0.2618,0,-0.2583,-0.2583,-0.2583,-0.2549,-0.2548,-0.2548,-0.2548,-0.251,-0.251,-0.2509,0,0,0,0,0,0,0,0,0,0,0,0,0,-0.2657,-0.2657,-0.2619,-0.2618,-0.2618,-0.2583,-0.2583,-0.2582,-0.2549,-0.2548,-0.2548,-0.2547,-0.251,-0.251,-0.2509,0,0,0,0,0,0,0,0,0,0,0,0,0,-0.2633,-0.2656,-0.2619,-0.2597,-0.2595,-0.2584,-0.2583,-0.2582,-0.2549,-0.2548,-0.2548,-0.2547,-0.2511,-0.251,-0.2509,-0.2516,0,0,-0.2506,-0.2506,0,0,0,0,0,0,0,0,-0.2634,-0.2632,-0.2601,-0.2599,-0.2596,-0.257,-0.2583,-0.256,-0.2549,-0.2566,-0.2548,-0.2547,-0.253,-0.2528,-0.2523,-0.2514,-0.2512,-0.2506,-0.2505,-0.2505,-0.2505,0,0,0,0,0,0,0,-0.2636,-0.2633,-0.2605,-0.26,-0.2597,-0.2589,-0.2585,-0.2578,-0.2552,-0.2565,-0.2562,-0.2559,-0.2529,-0.2524,-0.2521,-0.2512,-0.2506,-0.2505,-0.2505,-0.2504,-0.2509,-0.2509,0,0,0,0,0,0,-0.2641,-0.2635,-0.2606,-0.2604,-0.2614,-0.2589,-0.2584,-0.2579,-0.2552,-0.2548,-0.2559,-0.2557,-0.2525,-0.2523,-0.252,-0.2527,-0.2505,-0.2504,-0.2504,-0.2508,-0.2509,-0.251,0,0,0,0,0,0,-0.2642,-0.2639,-0.2607,-0.2618,-0.2614,-0.2589,-0.2583,-0.2579,-0.2573,-0.2548,-0.2543,-0.2558,-0.2525,-0.2521,-0.2518,-0.2525,-0.2504,-0.2503,-0.2507,-0.2508,-0.2509,-0.2541,0,0,0,0,0,0,-0.2643,-0.264,-0.2642,-0.2619,-0.2613,-0.2606,-0.2584,-0.2578,-0.2572,-0.2569,-0.2546,-0.2542,-0.2524,-0.2519,-0.2517,-0.2524,-0.2502,-0.2506,-0.2508,-0.2509,-0.254,-0.2543,-0.2547,0,0,0,0,0,-0.2645,-0.2652,-0.2642,-0.2639,-0.2616,-0.2606,-0.2603,-0.2583,-0.2572,-0.2575,-0.2559,-0.2542,-0.2525,-0.2519,-0.2516,-0.2523,-0.2506,-0.2507,-0.2509,-0.2538,-0.2543,-0.2547,0,0,0,0,0,0,-0.2676,-0.2648,-0.2637,-0.2637,-0.2624,-0.26,-0.2602,-0.2588,-0.2578,-0.2575,-0.255,-0.2546,-0.2545,-0.2533,-0.2527,-0.2529,-0.2513,-0.2514,-0.2536,-0.2541,-0.2544,-0.2547,-0.2501,0,0,0,0,0,-0.2683,-0.2677,-0.2653,-0.2655,-0.265,-0.2627,-0.2622,-0.2608,-0.2594,-0.2588,-0.2572,-0.2558,-0.255,-0.2545,-0.2535,-0.2538,-0.2533,-0.2541,-0.2545,-0.2548,-0.2549,-0.2551,-0.2554,-0.2515,-0.2515,-0.2514,0,0,-0.2696,-0.2681,-0.2679,-0.2661,-0.265,-0.2645,-0.2623,-0.2618,-0.2614,-0.2587,-0.2583,-0.2571,-0.2554,-0.2554,-0.2553,-0.2544,-0.2559,-0.255,-0.2553,-0.2552,-0.2553,-0.2556,-0.256,-0.2516,-0.2515,-0.2515,0,0,-0.2719,-0.2707,-0.2707,-0.2697,-0.268,-0.2665,-0.2666,-0.2644,-0.2635,-0.2631,-0.2611,-0.2606,-0.2591,-0.2581,-0.2573,-0.2594,-0.2579,-0.2592,-0.261,-0.2612,-0.2615,-0.2618,-0.2626,-0.2629,-0.2593,-0.2593,-0.2593,0,-0.2738,-0.273,-0.2709,-0.2706,-0.27,-0.2676,-0.2677,-0.2667,-0.2648,-0.2644,-0.2635,-0.2617,-0.2604,-0.2602,-0.2607,-0.2602,-0.2601,-0.2594,-0.2616,-0.2619,-0.2621,-0.2628,-0.2631,-0.2595,-0.2594,-0.2594,-0.2594,0,-0.2755,-0.275,-0.2752,-0.2735,-0.2729,-0.2728,-0.2707,-0.2703,-0.269,-0.2677,-0.2673,-0.2657,-0.2644,-0.2643,-0.2629,-0.2639,-0.2634,-0.2621,-0.2605,-0.2627,-0.2634,-0.2636,-0.2597,-0.2596,-0.2596,-0.2595,0,0,-0.2794,-0.2768,-0.2769,-0.2761,-0.2742,-0.2737,-0.2736,-0.2724,-0.2722,-0.271,-0.2708,-0.2697,-0.2686,-0.2677,-0.2663,-0.2664,-0.2683,-0.2651,-0.2651,-0.2658,-0.2693,-0.2703,-0.2707,-0.2673,-0.2673,-0.2674,-0.2695,0,-0.2814,-0.281,-0.2792,-0.2793,-0.2788,-0.2766,-0.2765,-0.2753,-0.2741,-0.2735,-0.2721,-0.2714,-0.2699,-0.2694,-0.2695,-0.268,-0.269,-0.2679,-0.2671,-0.2671,-0.2676,-0.271,-0.272,-0.2741,-0.2697,-0.2697,-0.2698,0,-0.2836,-0.2826,-0.2827,-0.2809,-0.2807,-0.2806,-0.2794,-0.2789,-0.2776,-0.2767,-0.2759,-0.2743,-0.274,-0.2725,-0.2722,-0.2715,-0.2711,-0.2703,-0.2703,-0.2702,-0.2686,-0.271,-0.2747,-0.275,-0.2701,-0.2701,-0.2701,0,-0.2866,-0.2853,-0.2852,-0.2846,-0.2825,-0.2825,-0.2816,-0.2802,-0.2797,-0.2787,-0.2783,-0.2773,-0.2768,-0.2761,-0.2743,-0.2734,-0.2742,-0.2725,-0.2734,-0.2735,-0.2737,-0.2737,-0.2774,-0.2734,-0.2734,-0.2734,-0.2734,0,-0.2889,-0.2891,-0.2865,-0.2865,-0.2866,-0.2846,-0.2848,-0.2837,-0.2825,-0.2822,-0.2802,-0.28,-0.2776,-0.2772,-0.2758,-0.2757,-0.2755,-0.2748,-0.2744,-0.275,-0.2751,-0.2747,-0.2745,-0.2735,-0.2735,-0.2734,-0.2734,0,-0.2922,-0.2905,-0.2903,-0.2884,-0.2879,-0.2881,-0.2864,-0.2863,-0.285,-0.2847,-0.2845,-0.2825,-0.2818,-0.28,-0.2789,-0.2779,-0.2783,-0.2776,-0.2788,-0.2786,-0.2796,-0.2796,-0.2832,-0.2837,-0.2794,-0.2794,-0.2795,0,-0.2938,-0.2939,-0.292,-0.2917,-0.291,-0.2905,-0.29,-0.288,-0.2876,-0.2861,-0.2862,-0.2855,-0.2847,-0.2838,-0.2822,-0.2814,-0.2807,-0.282,-0.2805,-0.2811,-0.2808,-0.2808,-0.2808,-0.2823,-0.2824,-0.2824,-0.2825,0,-0.2969,-0.2961,-0.2955,-0.2946,-0.2941,-0.2933,-0.2924,-0.2923,-0.2901,-0.2897,-0.2891,-0.2885,-0.2874,-0.2867,-0.2857,-0.2847,-0.2833,-0.283,-0.2832,-0.2837,-0.2845,-0.2841,-0.2797,-0.2829,-0.2828,-0.2828,-0.2828,-0.2828,-0.2994,-0.2995,-0.2982,-0.2976,-0.2967,-0.296,-0.2958,-0.2946,-0.294,-0.293,-0.2919,-0.2914,-0.2902,-0.2886,-0.2879,-0.2875,-0.2867,-0.2869,-0.287,-0.2871,-0.2874,-0.2845,-0.2873,-0.2872,-0.2872,-0.2872,-0.2872,0,-0.3025,-0.3016,-0.301,-0.2999,-0.2995,-0.2982,-0.2972,-0.2969,-0.2965,-0.2955,-0.2949,-0.2942,-0.2935,-0.292,-0.2912,-0.2912,-0.2905,-0.2911,-0.291,-0.2909,-0.2881,-0.288,-0.2916,-0.2916,-0.2916,-0.2916,-0.2916,-0.2916,-0.304,-0.304,-0.3031,-0.3027,-0.3018,-0.3013,-0.3009,-0.3002,-0.2994,-0.2987,-0.2982,-0.2972,-0.296,-0.2952,-0.2945,-0.2941,-0.2939,-0.2947,-0.294,-0.2915,-0.291,-0.2906,-0.2906,-0.2946,-0.2947,-0.2969,-0.2969,-0.2969]},{"header":{"parameterUnit":"m.s-1","parameterCategory":1,"la1":30.2991,"la2":30.254,"lo1":-89.0895,"lo2":-89.0444,"dy":0.0017,"dx":0.0017,"nx":28,"ny":28,"refTime":"2025-09-16T09:00:00:Z","depth":0,"parameterNumber":3,"parameterNumberName":"V-component_of_WINDS"},"data":[0,0,0,0,0,0,0,0,0,0,0,0,0,0,0,0,0,0,0,0,0,0,0,0,0,0,0,0,0,0,0,0,0,0,0,0,0,0,0,0,0,0,0,0,0,0,0,0,0,0,0,0,0,0,0,0,0,0,2.5732,2.5731,0,2.5664,2.5663,2.5662,2.5671,2.5672,2.5673,2.5674,2.5597,2.5594,2.5591,0,0,0,0,0,0,0,0,0,0,0,0,0,2.5863,2.5861,2.5732,2.5731,2.573,2.5664,2.5663,2.5662,2.5671,2.5672,2.5673,2.5675,2.5598,2.5595,2.5591,0,0,0,0,0,0,0,0,0,0,0,0,0,2.5801,2.586,2.5732,2.5727,2.5726,2.5664,2.5663,2.5662,2.567,2.5672,2.5674,2.5675,2.56,2.5595,2.5591,2.5528,0,0,2.5576,2.5574,0,0,0,0,0,0,0,0,2.5805,2.5797,2.5728,2.5727,2.5726,2.5678,2.5681,2.5616,2.567,2.5691,2.5674,2.5676,2.5622,2.5616,2.5599,2.5524,2.5521,2.5576,2.5573,2.5571,2.557,0,0,0,0,0,0,0,2.5809,2.58,2.5705,2.5727,2.5726,2.5726,2.5719,2.5669,2.5648,2.5689,2.569,2.5682,2.5622,2.5604,2.5597,2.552,2.5576,2.5572,2.5569,2.5567,2.5387,2.5385,0,0,0,0,0,0,2.5816,2.5803,2.5707,2.5703,2.5771,2.5722,2.5714,2.5691,2.5648,2.5644,2.5681,2.5683,2.5611,2.5603,2.5595,2.5516,2.5571,2.5567,2.5564,2.5389,2.5387,2.5385,0,0,0,0,0,0,2.5819,2.5807,2.571,2.5753,2.5741,2.5718,2.5692,2.5689,2.5671,2.5642,2.5637,2.5666,2.5612,2.5601,2.5544,2.5514,2.5565,2.556,2.5391,2.5388,2.5386,2.536,0,0,0,0,0,0,2.5822,2.5808,2.5786,2.5753,2.5738,2.5662,2.569,2.5686,2.5664,2.5666,2.5627,2.5622,2.5612,2.5551,2.554,2.5508,2.5557,2.5394,2.539,2.5387,2.5363,2.5357,2.5351,0,0,0,0,0,2.5827,2.578,2.5784,2.5773,2.571,2.5661,2.5652,2.5643,2.5661,2.5637,2.5618,2.5624,2.552,2.5545,2.5532,2.5499,2.5396,2.5391,2.5387,2.5366,2.5358,2.5351,0,0,0,0,0,0,2.5808,2.5776,2.578,2.5722,2.5694,2.5662,2.5631,2.5635,2.56,2.5603,2.5592,2.5583,2.5525,2.5507,2.5536,2.5435,2.546,2.5453,2.5449,2.544,2.5434,2.5438,2.5553,0,0,0,0,0,2.5797,2.5762,2.5735,2.5686,2.5672,2.5654,2.5632,2.5628,2.5598,2.5586,2.5563,2.5532,2.5492,2.5466,2.5427,2.5362,2.5352,2.5333,2.5326,2.5321,2.5314,2.5275,2.5266,2.537,2.537,2.537,0,0,2.5774,2.5752,2.573,2.5681,2.5659,2.5621,2.5644,2.5602,2.5573,2.5579,2.5523,2.5506,2.547,2.5408,2.5379,2.5391,2.5283,2.5315,2.5312,2.5307,2.527,2.526,2.5251,2.5367,2.5367,2.5368,0,0,2.5711,2.5693,2.5649,2.5627,2.5594,2.5583,2.5572,2.554,2.5529,2.5474,2.5477,2.5441,2.5373,2.5347,2.5324,2.5252,2.5255,2.524,2.5205,2.5168,2.516,2.5152,2.5124,2.5114,2.5234,2.5234,2.5234,0,2.5685,2.563,2.5625,2.5583,2.556,2.5566,2.552,2.5498,2.5454,2.5437,2.5451,2.5366,2.5342,2.5273,2.5256,2.5238,2.5224,2.5243,2.5162,2.5154,2.5147,2.512,2.5109,2.5232,2.5232,2.5232,2.5232,0,2.5598,2.5559,2.5527,2.5486,2.546,2.5416,2.5403,2.5377,2.5375,2.5361,2.5304,2.5276,2.5232,2.5216,2.5213,2.5145,2.5153,2.5165,2.5189,2.5136,2.5109,2.5099,2.5229,2.523,2.523,2.5231,0,0,2.5519,2.5478,2.5466,2.5446,2.5411,2.5379,2.5335,2.5294,2.527,2.524,2.52,2.5143,2.5153,2.5128,2.5123,2.509,2.5031,2.5105,2.5104,2.509,2.4952,2.4941,2.4929,2.5034,2.5032,2.5031,2.4954,0,2.5451,2.5375,2.5369,2.5299,2.5261,2.5267,2.5228,2.5201,2.5187,2.5151,2.5135,2.5093,2.5112,2.5097,2.5065,2.5045,2.5003,2.5051,2.4994,2.4992,2.5,2.4916,2.4905,2.4834,2.4944,2.4942,2.4941,0,2.5361,2.533,2.5256,2.5225,2.5209,2.5174,2.5135,2.5102,2.5071,2.5063,2.5035,2.5034,2.4985,2.5014,2.4945,2.4978,2.4954,2.4941,2.4938,2.4929,2.4961,2.4903,2.4811,2.4799,2.4926,2.4927,2.4928,0,2.5308,2.5247,2.5195,2.5178,2.5142,2.5117,2.51,2.507,2.5046,2.5011,2.4994,2.4954,2.4931,2.4898,2.4885,2.4908,2.4816,2.4844,2.4805,2.4805,2.4783,2.4784,2.4683,2.4773,2.4773,2.4773,2.4774,0,2.523,2.5184,2.517,2.5137,2.5085,2.5079,2.5027,2.5011,2.4985,2.4947,2.495,2.4914,2.4901,2.4862,2.4851,2.4794,2.4785,2.4775,2.4772,2.4773,2.4773,2.4755,2.4758,2.477,2.4771,2.4772,2.4772,0,2.5161,2.515,2.5093,2.5063,2.5055,2.5017,2.4991,2.4958,2.4946,2.4898,2.4886,2.4865,2.482,2.4805,2.4749,2.4742,2.4675,2.4678,2.4686,2.4685,2.4646,2.4648,2.4527,2.4509,2.4613,2.4612,2.4612,0,2.5111,2.5076,2.5043,2.5019,2.5002,2.4964,2.4939,2.4931,2.4904,2.4865,2.4836,2.4792,2.4756,2.4683,2.4661,2.4618,2.4618,2.4578,2.4611,2.4613,2.4613,2.4615,2.461,2.4571,2.457,2.4569,2.4568,0,2.5022,2.5018,2.4984,2.4946,2.4917,2.4887,2.4858,2.4838,2.4825,2.4795,2.4749,2.4722,2.4666,2.462,2.4577,2.4557,2.4559,2.4559,2.4547,2.4546,2.4551,2.4545,2.4666,2.4561,2.4562,2.4562,2.4563,2.4563,2.4958,2.4927,2.4899,2.4859,2.4837,2.481,2.4777,2.4762,2.4724,2.468,2.4677,2.4627,2.4595,2.4537,2.4515,2.4474,2.4485,2.4468,2.4463,2.4459,2.4454,2.456,2.4466,2.4466,2.4467,2.4467,2.4467,0,2.4867,2.485,2.4814,2.4774,2.4742,2.4751,2.4719,2.4691,2.4648,2.4619,2.4584,2.4531,2.4487,2.4463,2.4418,2.439,2.439,2.4378,2.4378,2.4373,2.4449,2.4462,2.4379,2.4379,2.4379,2.4379,2.4379,2.4379,2.4816,2.4763,2.4756,2.469,2.4673,2.4626,2.4606,2.458,2.4557,2.4498,2.4462,2.4448,2.4419,2.4373,2.4332,2.4326,2.4308,2.4294,2.4289,2.4359,2.4368,2.4376,2.4389,2.4291,2.4291,2.4216,2.4215,2.4215]}]]